[[{"header":{"parameterUnit":"m.s-1","parameterCategory":2,"la1":30.2991,"la2":30.254,"lo1":-89.0895,"lo2":-89.0444,"dy":0.0017,"dx":0.0017,"nx":28,"ny":28,"refTime":"2025-07-26T03:00:00:Z","depth":"0","parameterNumber":2,"parameterNumberName":"U-component_of_CURRENTS"},"data":[0,0,0,0,0,0,0,0,0,0,0,0,0,0,0,0,0,0,0,0,0,0,0,0,0,0,0,0,0,0,0,0,0,0,0,0,0,0,0,0,0,0,0,0,0,0,0,0,0,0,0,0,0,0,0,0,0,0,0.2473,0.2472,0,0.2332,0.233,0.2328,0.2227,0.2227,0.2227,0.2227,0.2144,0.2142,0.214,0,0,0,0,0,0,0,0,0,0,0,0,0,0.2606,0.2604,0.2473,0.2472,0.2471,0.2332,0.233,0.2327,0.2227,0.2227,0.2227,0.2227,0.2145,0.2143,0.214,0,0,0,0,0,0,0,0,0,0,0,0,0,0.2508,0.2603,0.2474,0.2411,0.2404,0.2333,0.233,0.2326,0.2227,0.2227,0.2227,0.2227,0.2146,0.2143,0.214,0.2122,0,0,0.213,0.2129,0,0,0,0,0,0,0,0,0.2514,0.2502,0.2421,0.2415,0.2408,0.2304,0.2347,0.2264,0.2227,0.2286,0.2227,0.2227,0.2209,0.22,0.2162,0.2118,0.2115,0.213,0.2128,0.2126,0.2125,0,0,0,0,0,0,0,0.2521,0.2507,0.2409,0.242,0.2412,0.2373,0.2358,0.2329,0.2245,0.2281,0.2275,0.2272,0.2204,0.2165,0.2159,0.2113,0.213,0.2127,0.2125,0.2124,0.2101,0.2102,0,0,0,0,0,0,0.2556,0.2514,0.2414,0.2406,0.247,0.2372,0.2355,0.2331,0.2243,0.2232,0.2273,0.2268,0.217,0.2163,0.2156,0.2182,0.2126,0.2123,0.2122,0.21,0.2101,0.2103,0,0,0,0,0,0,0.2559,0.2548,0.242,0.2465,0.2446,0.2371,0.2344,0.2329,0.2302,0.2238,0.2226,0.2265,0.217,0.2161,0.2139,0.2176,0.2122,0.2119,0.2098,0.21,0.2102,0.2201,0,0,0,0,0,0,0.2563,0.2549,0.2546,0.2466,0.2446,0.2401,0.2344,0.2326,0.2304,0.2297,0.2228,0.2218,0.2169,0.2144,0.2136,0.2171,0.2117,0.2096,0.2099,0.2101,0.2196,0.2206,0.2215,0,0,0,0,0,0.2568,0.2561,0.2546,0.2535,0.2442,0.2403,0.2388,0.2328,0.2304,0.2302,0.2249,0.2221,0.2155,0.2142,0.2132,0.2167,0.2095,0.2098,0.2101,0.2192,0.2204,0.2215,0,0,0,0,0,0,0.2609,0.2549,0.2531,0.2504,0.2473,0.239,0.2378,0.2345,0.2296,0.2291,0.2225,0.2213,0.2211,0.2176,0.2163,0.2169,0.2126,0.2127,0.2199,0.221,0.2219,0.2275,0.2114,0,0,0,0,0,0.2623,0.2609,0.2551,0.2538,0.2522,0.2457,0.2434,0.2401,0.2349,0.2326,0.2277,0.2236,0.2212,0.2201,0.2167,0.2166,0.2199,0.2187,0.2197,0.2205,0.2244,0.234,0.2364,0.2112,0.2112,0.2112,0,0,0.2637,0.2606,0.2597,0.2549,0.251,0.2496,0.244,0.2418,0.2417,0.2329,0.2308,0.2266,0.2218,0.2212,0.2211,0.219,0.2288,0.2208,0.2216,0.2251,0.2346,0.2371,0.2394,0.2114,0.2114,0.2114,0,0,0.2661,0.263,0.2625,0.2604,0.2571,0.2537,0.2544,0.2477,0.2458,0.2431,0.238,0.2371,0.2305,0.2295,0.2278,0.2327,0.2334,0.231,0.2403,0.2496,0.2519,0.2539,0.2596,0.2621,0.2317,0.2317,0.2317,0,0.2683,0.2658,0.2623,0.2615,0.2605,0.2566,0.2564,0.2545,0.2485,0.2487,0.2443,0.2398,0.2353,0.2385,0.2393,0.2353,0.2397,0.2361,0.2513,0.2534,0.2554,0.2607,0.2634,0.2322,0.2321,0.2321,0.232,0,0.2692,0.2682,0.268,0.2659,0.2654,0.2646,0.2626,0.2624,0.2596,0.2576,0.2592,0.2536,0.2519,0.2503,0.2454,0.2566,0.2548,0.2515,0.2493,0.2586,0.2635,0.2661,0.2329,0.2327,0.2326,0.2325,0,0,0.2696,0.2687,0.2683,0.2686,0.2673,0.2664,0.2692,0.2698,0.2725,0.2696,0.2734,0.2704,0.2693,0.2678,0.2639,0.2714,0.2863,0.2682,0.2684,0.2755,0.3065,0.2954,0.2971,0.2867,0.2873,0.2877,0.3038,0,0.2706,0.271,0.2704,0.272,0.2716,0.2713,0.2743,0.276,0.2763,0.2794,0.28,0.2811,0.2758,0.2754,0.2832,0.2851,0.2939,0.2822,0.2952,0.2956,0.2861,0.3,0.2774,0.2892,0.3063,0.3067,0.3071,0,0.2696,0.2705,0.272,0.2746,0.2745,0.2759,0.2803,0.2827,0.2888,0.2894,0.2943,0.294,0.3035,0.297,0.3127,0.3059,0.3089,0.3109,0.3114,0.3005,0.2895,0.2829,0.2931,0.2808,0.311,0.3107,0.3104,0,0.2694,0.2708,0.2726,0.2728,0.2758,0.2775,0.2797,0.2853,0.2901,0.2975,0.3021,0.3111,0.3164,0.325,0.3275,0.3227,0.3447,0.3373,0.3311,0.3301,0.3133,0.3099,0.3147,0.3525,0.3524,0.3524,0.3524,0,0.2689,0.27,0.2724,0.2728,0.2766,0.2784,0.2849,0.2875,0.2965,0.3044,0.3083,0.317,0.3249,0.3353,0.3366,0.3428,0.3528,0.3381,0.3364,0.3153,0.3121,0.302,0.2978,0.353,0.3529,0.3527,0.3526,0,0.2676,0.2693,0.271,0.2744,0.2761,0.2785,0.2873,0.2931,0.3005,0.3118,0.3154,0.3276,0.3398,0.3454,0.3586,0.3536,0.3471,0.3583,0.3309,0.3257,0.3035,0.3006,0.2992,0.2913,0.3554,0.3552,0.3551,0,0.2666,0.2673,0.2713,0.2736,0.2749,0.2803,0.2855,0.2937,0.301,0.3177,0.3238,0.3386,0.346,0.3596,0.3537,0.3557,0.3454,0.3352,0.3215,0.3044,0.3002,0.2893,0.282,0.3026,0.3021,0.3017,0.3013,0,0.2641,0.2655,0.2672,0.2733,0.2778,0.2843,0.2917,0.298,0.3094,0.3189,0.332,0.3392,0.347,0.3378,0.3371,0.3341,0.3134,0.3261,0.3176,0.2694,0.2492,0.2395,0.2882,0.2974,0.2978,0.2981,0.2983,0.2984,0.2613,0.2625,0.2663,0.272,0.2783,0.2857,0.2886,0.2973,0.3073,0.3142,0.3284,0.3278,0.3193,0.3134,0.31,0.2815,0.2896,0.2656,0.267,0.2601,0.2421,0.2811,0.2816,0.2818,0.2821,0.2823,0.2825,0,0.2581,0.2611,0.2656,0.2721,0.2785,0.2832,0.2914,0.2912,0.2971,0.3006,0.3064,0.2894,0.2751,0.2641,0.2368,0.222,0.2119,0.2144,0.194,0.1928,0.2347,0.2214,0.1975,0.1975,0.1975,0.1975,0.1975,0.1975,0.2568,0.2593,0.2627,0.2707,0.2759,0.2783,0.2805,0.2783,0.2767,0.2631,0.2478,0.2443,0.2306,0.2074,0.1816,0.1762,0.1633,0.1513,0.1617,0.1879,0.1927,0.1972,0.1837,0.1522,0.1522,0.1039,0.1035,0.1032]},{"header":{"parameterUnit":"m.s-1","parameterCategory":2,"la1":30.2991,"la2":30.254,"lo1":-89.0895,"lo2":-89.0444,"dy":0.0017,"dx":0.0017,"nx":28,"ny":28,"refTime":"2025-07-26T03:00:00:Z","depth":"0","parameterNumber":3,"parameterNumberName":"V-component_of_CURRENTS"},"data":[0,0,0,0,0,0,0,0,0,0,0,0,0,0,0,0,0,0,0,0,0,0,0,0,0,0,0,0,0,0,0,0,0,0,0,0,0,0,0,0,0,0,0,0,0,0,0,0,0,0,0,0,0,0,0,0,0,0,0.0319,0.0319,0,0.0309,0.0309,0.0308,0.0299,0.0299,0.0299,0.0299,0.0255,0.0254,0.0252,0,0,0,0,0,0,0,0,0,0,0,0,0,0.0297,0.0298,0.0319,0.0319,0.0319,0.0309,0.0309,0.0308,0.0299,0.0299,0.0299,0.0299,0.0255,0.0254,0.0252,0,0,0,0,0,0,0,0,0,0,0,0,0,0.0297,0.0298,0.0319,0.0314,0.0314,0.0309,0.0309,0.0308,0.0299,0.0299,0.0299,0.0299,0.0256,0.0254,0.0252,0.024,0,0,0.0246,0.0246,0,0,0,0,0,0,0,0,0.0298,0.0298,0.0315,0.0314,0.0314,0.0307,0.0285,0.0284,0.0299,0.0303,0.0299,0.0299,0.027,0.0267,0.0263,0.0238,0.0236,0.0246,0.0245,0.0244,0.0244,0,0,0,0,0,0,0,0.0298,0.0298,0.0313,0.0315,0.0314,0.0302,0.0302,0.0285,0.0284,0.0302,0.0302,0.0304,0.0269,0.0265,0.0262,0.0235,0.0246,0.0245,0.0244,0.0243,0.0202,0.0203,0,0,0,0,0,0,0.0304,0.0299,0.0313,0.0313,0.0308,0.0302,0.0303,0.0308,0.0285,0.0283,0.0304,0.0303,0.0268,0.0264,0.026,0.0263,0.0244,0.0243,0.0242,0.0202,0.0203,0.0203,0,0,0,0,0,0,0.0304,0.0306,0.0314,0.0306,0.0307,0.0303,0.0309,0.0307,0.0305,0.0287,0.0283,0.0303,0.0268,0.0263,0.0249,0.026,0.0242,0.024,0.0202,0.0202,0.0203,0.0256,0,0,0,0,0,0,0.0303,0.0305,0.0308,0.0307,0.0308,0.0314,0.0309,0.0307,0.0307,0.0306,0.0285,0.0281,0.0268,0.0252,0.0247,0.0257,0.0239,0.0202,0.0202,0.0203,0.0254,0.0257,0.026,0,0,0,0,0,0.0302,0.0311,0.0308,0.031,0.0312,0.0315,0.0314,0.0309,0.0307,0.0307,0.0293,0.0282,0.0249,0.025,0.0245,0.0255,0.0202,0.0202,0.0203,0.0252,0.0257,0.026,0,0,0,0,0,0,0.0301,0.0311,0.0308,0.0318,0.0316,0.0314,0.0316,0.0311,0.0301,0.03,0.0281,0.0276,0.0267,0.025,0.0252,0.0242,0.0224,0.0223,0.0263,0.0267,0.027,0.0296,0.0237,0,0,0,0,0,0.0302,0.0313,0.0314,0.0321,0.0323,0.0318,0.0317,0.0315,0.0309,0.0305,0.029,0.0274,0.0262,0.0257,0.0239,0.0234,0.0243,0.0235,0.0239,0.0242,0.0258,0.0295,0.0305,0.0203,0.0203,0.0203,0,0,0.0305,0.0311,0.0316,0.0322,0.0321,0.0332,0.0318,0.0322,0.0331,0.03,0.0303,0.0282,0.0261,0.0257,0.0252,0.0246,0.0271,0.0242,0.0245,0.0259,0.0296,0.0307,0.0316,0.0203,0.0203,0.0203,0,0,0.0321,0.0319,0.0336,0.0338,0.0341,0.034,0.0343,0.034,0.0338,0.0334,0.0318,0.0309,0.0282,0.0281,0.0274,0.0284,0.0285,0.0271,0.0315,0.0351,0.0361,0.0369,0.0382,0.0391,0.0277,0.0277,0.0278,0,0.0322,0.0346,0.0338,0.0354,0.0364,0.0348,0.0368,0.0363,0.0355,0.0364,0.034,0.0328,0.03,0.0319,0.0317,0.0295,0.031,0.0304,0.0359,0.0368,0.0376,0.0387,0.0396,0.028,0.028,0.0279,0.0279,0,0.0352,0.037,0.038,0.0399,0.0402,0.0418,0.0413,0.0415,0.0406,0.0406,0.0414,0.0382,0.0385,0.0365,0.034,0.0381,0.037,0.0358,0.0357,0.039,0.0398,0.0407,0.0284,0.0283,0.0282,0.0281,0,0,0.0365,0.0399,0.0403,0.0425,0.0432,0.0443,0.0456,0.0475,0.0504,0.0479,0.0521,0.048,0.0473,0.0465,0.0439,0.0456,0.0503,0.0433,0.0434,0.046,0.0577,0.0537,0.0542,0.0511,0.0513,0.0515,0.0556,0,0.0396,0.0446,0.0449,0.0492,0.052,0.0513,0.0533,0.0543,0.0546,0.0577,0.0557,0.0576,0.0511,0.0521,0.0528,0.0521,0.0532,0.0492,0.0529,0.053,0.0503,0.0554,0.0553,0.0588,0.0565,0.0567,0.0568,0,0.0427,0.0462,0.0515,0.0561,0.0572,0.0589,0.0632,0.065,0.0679,0.0684,0.0701,0.0691,0.0711,0.065,0.0666,0.0649,0.0617,0.0597,0.0599,0.0554,0.0508,0.0552,0.0606,0.0526,0.0582,0.0581,0.058,0,0.0454,0.0507,0.0558,0.0571,0.0614,0.0635,0.0657,0.0685,0.072,0.0767,0.0806,0.0817,0.0851,0.082,0.0766,0.0732,0.0785,0.0735,0.0664,0.066,0.0663,0.0655,0.0659,0.0748,0.0748,0.0748,0.0748,0,0.0492,0.0531,0.0576,0.0603,0.0665,0.0676,0.074,0.0761,0.0814,0.0886,0.0872,0.0947,0.0901,0.0917,0.0833,0.0792,0.0844,0.0691,0.0681,0.0676,0.067,0.0601,0.0553,0.0749,0.0749,0.0749,0.0748,0,0.0513,0.0543,0.0604,0.066,0.0679,0.0722,0.0787,0.0837,0.0884,0.0983,0.101,0.1076,0.1114,0.1041,0.1018,0.09,0.0799,0.0805,0.0787,0.0774,0.0599,0.0554,0.0559,0.0522,0.0736,0.0735,0.0735,0,0.0532,0.0567,0.064,0.0676,0.0702,0.0765,0.0809,0.0863,0.0925,0.1072,0.1133,0.1214,0.1297,0.1237,0.1067,0.0934,0.0832,0.0796,0.0714,0.061,0.0554,0.0521,0.0487,0.0735,0.0735,0.0734,0.0734,0,0.0568,0.059,0.0639,0.0712,0.0764,0.0834,0.0907,0.0973,0.1065,0.1186,0.1364,0.1458,0.1413,0.1322,0.1111,0.0991,0.074,0.0781,0.0703,0.0583,0.0525,0.0477,0.0666,0.0731,0.0731,0.0732,0.0732,0.0732,0.0589,0.0626,0.0684,0.0751,0.0816,0.0904,0.0983,0.1096,0.1248,0.1455,0.1527,0.1701,0.1504,0.1251,0.1079,0.0726,0.0734,0.0599,0.0563,0.0546,0.0486,0.0647,0.0676,0.0676,0.0675,0.0675,0.0675,0,0.0611,0.0652,0.0718,0.0804,0.0878,0.0909,0.1049,0.1161,0.1378,0.1576,0.176,0.1746,0.1526,0.1231,0.0758,0.054,0.0463,0.043,0.0396,0.0376,0.0556,0.0528,0.0491,0.0491,0.0492,0.0492,0.0492,0.0492,0.0625,0.068,0.0713,0.0834,0.0902,0.1028,0.1122,0.1321,0.1493,0.1748,0.1849,0.1903,0.1641,0.093,0.0476,0.0378,0.0247,0.0219,0.0159,0.0279,0.0292,0.0304,0.0268,0.0177,0.0176,0.0001,-0.0001,-0.0002]}],[{"header":{"parameterUnit":"m.s-1","parameterCategory":2,"la1":30.2991,"la2":30.254,"lo1":-89.0895,"lo2":-89.0444,"dy":0.0017,"dx":0.0017,"nx":28,"ny":28,"refTime":"2025-07-26T03:00:00:Z","depth":"2","parameterNumber":2,"parameterNumberName":"U-component_of_CURRENTS"},"data":[0,0,0,0,0,0,0,0,0,0,0,0,0,0,0,0,0,0,0,0,0,0,0,0,0,0,0,0,0,0,0,0,0,0,0,0,0,0,0,0,0,0,0,0,0,0,0,0,0,0,0,0,0,0,0,0,0,0,0.1936,0.1936,0,0.1881,0.188,0.1879,0.1846,0.1846,0.1846,0.1846,0.1828,0.1827,0.1827,0,0,0,0,0,0,0,0,0,0,0,0,0,0.1947,0.1947,0.1936,0.1936,0.1936,0.1881,0.188,0.1879,0.1846,0.1846,0.1846,0.1846,0.1828,0.1828,0.1827,0,0,0,0,0,0,0,0,0,0,0,0,0,0.1919,0.1947,0.1937,0.1915,0.1913,0.1881,0.188,0.1879,0.1846,0.1846,0.1846,0.1847,0.1829,0.1828,0.1827,0.1816,0,0,0.1824,0.1823,0,0,0,0,0,0,0,0,0.192,0.1918,0.1919,0.1917,0.1914,0.1874,0.1877,0.1861,0.1846,0.1868,0.1846,0.1847,0.1849,0.1846,0.183,0.1816,0.1815,0.1824,0.1823,0.1823,0.1823,0,0,0,0,0,0,0,0.1923,0.192,0.1911,0.1918,0.1915,0.1886,0.1882,0.1873,0.1856,0.1866,0.1864,0.1863,0.1847,0.1831,0.183,0.1815,0.1824,0.1823,0.1822,0.1822,0.1847,0.1848,0,0,0,0,0,0,0.1939,0.1922,0.1913,0.191,0.1922,0.1886,0.1882,0.1884,0.1855,0.1852,0.1863,0.1862,0.1832,0.1831,0.1829,0.1873,0.1823,0.1822,0.1821,0.1846,0.1848,0.1849,0,0,0,0,0,0,0.194,0.1939,0.1915,0.1917,0.1912,0.1886,0.1888,0.1882,0.1882,0.1853,0.185,0.1871,0.1832,0.183,0.1836,0.187,0.1822,0.1821,0.1845,0.1847,0.1848,0.1924,0,0,0,0,0,0,0.194,0.194,0.1944,0.1919,0.1913,0.1909,0.1888,0.1881,0.1881,0.188,0.1858,0.1855,0.1832,0.1837,0.1835,0.1868,0.182,0.1843,0.1846,0.1848,0.192,0.1928,0.1935,0,0,0,0,0,0.1941,0.1943,0.1944,0.1943,0.1921,0.191,0.1904,0.1883,0.1882,0.1883,0.1872,0.1857,0.185,0.1837,0.1834,0.1868,0.1842,0.1845,0.1848,0.1917,0.1927,0.1935,0,0,0,0,0,0,0.1953,0.194,0.194,0.1941,0.1935,0.1906,0.1903,0.1896,0.1886,0.1887,0.1865,0.1862,0.1881,0.1863,0.1849,0.1882,0.1847,0.1849,0.1901,0.191,0.1917,0.1937,0.1819,0,0,0,0,0,0.196,0.196,0.1947,0.1953,0.1951,0.1933,0.1927,0.1916,0.1904,0.19,0.1891,0.1884,0.1886,0.1889,0.188,0.1896,0.1913,0.1918,0.1925,0.1932,0.1946,0.2022,0.2039,0.1858,0.1858,0.1858,0,0,0.1963,0.1963,0.1959,0.1956,0.1948,0.1949,0.1929,0.1926,0.1937,0.1901,0.1917,0.1908,0.1895,0.1912,0.192,0.1904,0.1988,0.1936,0.1941,0.1952,0.2027,0.2045,0.2061,0.186,0.186,0.1859,0,0,0.1973,0.1976,0.1976,0.1978,0.1976,0.1966,0.1974,0.1959,0.1963,0.1972,0.1958,0.1975,0.1966,0.1973,0.1973,0.202,0.2025,0.2019,0.2077,0.2151,0.2167,0.2181,0.2211,0.2228,0.2026,0.2026,0.2026,0,0.1979,0.1983,0.1976,0.1985,0.1988,0.1982,0.1986,0.1993,0.1986,0.2003,0.1988,0.2013,0.1999,0.2042,0.2056,0.204,0.2071,0.2042,0.2163,0.2178,0.2192,0.2219,0.2236,0.203,0.2029,0.2029,0.2028,0,0.1984,0.1996,0.2001,0.2012,0.2015,0.2019,0.2028,0.2047,0.2055,0.2062,0.2107,0.2096,0.212,0.2119,0.2099,0.2189,0.2174,0.2164,0.2144,0.2215,0.2238,0.2255,0.2035,0.2034,0.2033,0.2032,0,0,0.198,0.1997,0.2004,0.2013,0.2028,0.2029,0.2068,0.2094,0.2132,0.2148,0.2201,0.2216,0.223,0.2233,0.2226,0.2281,0.239,0.2271,0.2273,0.2308,0.254,0.2441,0.2449,0.2416,0.242,0.2423,0.2513,0,0.1988,0.2003,0.2013,0.2037,0.2039,0.2063,0.2103,0.2136,0.2163,0.2217,0.2249,0.2285,0.2271,0.2288,0.2353,0.238,0.2441,0.2365,0.246,0.2462,0.2373,0.2468,0.223,0.2284,0.2529,0.2532,0.2534,0,0.199,0.1997,0.2012,0.2049,0.2056,0.2081,0.214,0.2174,0.2256,0.2287,0.2352,0.2369,0.2455,0.2426,0.2554,0.2513,0.2544,0.2558,0.2562,0.2459,0.2396,0.2255,0.2305,0.2561,0.2559,0.2557,0.2555,0,0.1976,0.2004,0.2015,0.2025,0.2064,0.2096,0.2129,0.2198,0.2241,0.2338,0.2379,0.2479,0.254,0.261,0.2656,0.2622,0.2787,0.2737,0.2676,0.2667,0.2475,0.2443,0.2844,0.2844,0.2844,0.2843,0.2843,0,0.1977,0.1982,0.2014,0.2023,0.2058,0.2092,0.215,0.2207,0.2292,0.2364,0.2422,0.2497,0.26,0.2691,0.2712,0.2759,0.2848,0.271,0.2703,0.2489,0.2459,0.2703,0.2686,0.2847,0.2846,0.2845,0.2845,0,0.1948,0.197,0.1986,0.2034,0.2053,0.208,0.2154,0.2186,0.2286,0.2385,0.2421,0.2555,0.2672,0.2739,0.286,0.2826,0.2865,0.2857,0.2578,0.2536,0.2671,0.2657,0.2783,0.2781,0.2779,0.2777,0.2776,0,0.193,0.1938,0.1988,0.2002,0.2024,0.2067,0.2088,0.2178,0.222,0.2417,0.2458,0.2608,0.2669,0.2786,0.2775,0.2787,0.2869,0.2565,0.2445,0.2694,0.2675,0.2663,0.2651,0.2215,0.2209,0.2204,0.22,0,0.1891,0.1918,0.1926,0.1977,0.1999,0.2029,0.2082,0.2105,0.2235,0.2309,0.2452,0.2512,0.2621,0.2527,0.2542,0.2516,0.2534,0.2465,0.2849,0.2258,0.2164,0.2142,0.2149,0.2157,0.2162,0.2165,0.2167,0.2169,0.1863,0.1857,0.1899,0.1926,0.1968,0.2,0.2,0.2049,0.2109,0.2178,0.2326,0.2321,0.2351,0.2225,0.2169,0.2132,0.2301,0.2174,0.2187,0.2206,0.2115,0.2022,0.197,0.1973,0.1976,0.1978,0.1981,0,0.1813,0.1816,0.1844,0.1883,0.1905,0.197,0.1994,0.1944,0.1958,0.2004,0.2054,0.1869,0.1778,0.1829,0.1686,0.1663,0.1631,0.16,0.1539,0.1583,0.1622,0.15,0.1193,0.1191,0.1188,0.1186,0,0,0.1785,0.1768,0.1764,0.1797,0.1848,0.1869,0.1866,0.1765,0.175,0.1649,0.1606,0.1675,0.1754,0.1449,0.1403,0.1279,0.142,0.1221,0.1854,0.1827,0.1863,0.1957,0.1818,0,0,0,0,0]},{"header":{"parameterUnit":"m.s-1","parameterCategory":2,"la1":30.2991,"la2":30.254,"lo1":-89.0895,"lo2":-89.0444,"dy":0.0017,"dx":0.0017,"nx":28,"ny":28,"refTime":"2025-07-26T03:00:00:Z","depth":"2","parameterNumber":3,"parameterNumberName":"V-component_of_CURRENTS"},"data":[0,0,0,0,0,0,0,0,0,0,0,0,0,0,0,0,0,0,0,0,0,0,0,0,0,0,0,0,0,0,0,0,0,0,0,0,0,0,0,0,0,0,0,0,0,0,0,0,0,0,0,0,0,0,0,0,0,0,0.0134,0.0134,0,0.0131,0.0131,0.0131,0.0132,0.0132,0.0132,0.0132,0.0101,0.0101,0.01,0,0,0,0,0,0,0,0,0,0,0,0,0,0.0114,0.0114,0.0134,0.0134,0.0134,0.0131,0.0131,0.0131,0.0132,0.0132,0.0132,0.0132,0.0102,0.0101,0.01,0,0,0,0,0,0,0,0,0,0,0,0,0,0.0118,0.0115,0.0134,0.0134,0.0133,0.0131,0.0131,0.0131,0.0132,0.0132,0.0132,0.0132,0.0102,0.0101,0.01,0.0091,0,0,0.0096,0.0095,0,0,0,0,0,0,0,0,0.0118,0.0119,0.0134,0.0134,0.0133,0.0131,0.0112,0.0116,0.0132,0.0133,0.0132,0.0132,0.0109,0.0107,0.0107,0.0089,0.0088,0.0096,0.0095,0.0094,0.0094,0,0,0,0,0,0,0,0.0118,0.0119,0.0133,0.0134,0.0133,0.0124,0.0125,0.0113,0.012,0.0133,0.0133,0.0132,0.0108,0.0108,0.0106,0.0088,0.0096,0.0095,0.0094,0.0093,0.0069,0.0069,0,0,0,0,0,0,0.0119,0.0119,0.0133,0.0133,0.0125,0.0125,0.0126,0.0132,0.0121,0.0119,0.0132,0.0132,0.011,0.0108,0.0105,0.0107,0.0094,0.0093,0.0092,0.0069,0.0069,0.0069,0,0,0,0,0,0,0.0119,0.012,0.0133,0.0125,0.0126,0.0125,0.0132,0.0132,0.0133,0.012,0.0118,0.0132,0.011,0.0107,0.0099,0.0106,0.0093,0.0091,0.0069,0.0069,0.0069,0.0103,0,0,0,0,0,0,0.0118,0.0121,0.0123,0.0125,0.0126,0.0132,0.0132,0.0132,0.0132,0.0132,0.012,0.0118,0.011,0.0101,0.0098,0.0104,0.009,0.0069,0.0069,0.0069,0.0102,0.0105,0.0107,0,0,0,0,0,0.0118,0.0124,0.0124,0.0125,0.0131,0.0132,0.0132,0.0132,0.0132,0.0132,0.0128,0.0118,0.01,0.01,0.0097,0.0102,0.0069,0.0069,0.0069,0.0101,0.0104,0.0107,0,0,0,0,0,0,0.0114,0.0125,0.0124,0.0133,0.0132,0.0132,0.0132,0.0132,0.0129,0.0129,0.0119,0.0116,0.0112,0.01,0.01,0.0095,0.0083,0.0082,0.0108,0.0111,0.0113,0.0121,0.0089,0,0,0,0,0,0.0115,0.0125,0.0128,0.0133,0.0133,0.0132,0.0132,0.0132,0.013,0.0129,0.0122,0.0114,0.0109,0.0105,0.0096,0.0092,0.0087,0.0092,0.0094,0.0097,0.01,0.0108,0.0112,0.007,0.007,0.007,0,0,0.0114,0.0121,0.0125,0.0132,0.0132,0.014,0.0133,0.0134,0.0142,0.0125,0.0131,0.012,0.0109,0.0108,0.0105,0.01,0.0104,0.0097,0.0099,0.0101,0.0109,0.0113,0.0117,0.007,0.007,0.007,0,0,0.012,0.0123,0.0135,0.0138,0.0141,0.0142,0.0143,0.0144,0.0145,0.0146,0.014,0.0135,0.0122,0.0122,0.0119,0.0127,0.0116,0.012,0.014,0.0149,0.0153,0.0156,0.0149,0.0152,0.0123,0.0123,0.0123,0,0.0117,0.0138,0.0136,0.0149,0.0156,0.0146,0.016,0.0159,0.0157,0.0163,0.015,0.0146,0.0131,0.0143,0.0143,0.0133,0.0131,0.0133,0.0153,0.0157,0.0159,0.0152,0.0154,0.0125,0.0124,0.0124,0.0124,0,0.0136,0.0152,0.0158,0.0176,0.0179,0.0189,0.0189,0.0192,0.0189,0.019,0.0194,0.0176,0.0179,0.0169,0.0156,0.0171,0.016,0.0156,0.0149,0.0166,0.0156,0.0158,0.0127,0.0126,0.0126,0.0125,0,0,0.0139,0.0168,0.0172,0.019,0.0198,0.0207,0.0217,0.0231,0.025,0.0234,0.0259,0.0236,0.0227,0.0223,0.0208,0.0206,0.0215,0.0189,0.0189,0.0188,0.0226,0.0202,0.0202,0.0219,0.022,0.022,0.0209,0,0.0158,0.0198,0.0202,0.0235,0.0257,0.0254,0.0271,0.0278,0.0279,0.0298,0.0279,0.0293,0.0249,0.0257,0.0246,0.0234,0.0223,0.0218,0.0205,0.0204,0.0186,0.0204,0.0223,0.0213,0.0211,0.0211,0.0211,0,0.018,0.0209,0.0248,0.0285,0.0293,0.0307,0.0338,0.0353,0.0368,0.0371,0.0372,0.036,0.0359,0.032,0.0296,0.0298,0.026,0.0237,0.0236,0.0205,0.0184,0.0197,0.0217,0.0214,0.0214,0.0214,0.0214,0,0.0201,0.0241,0.0278,0.029,0.0325,0.0341,0.0358,0.0377,0.0405,0.0425,0.0453,0.0434,0.0454,0.0401,0.0348,0.0328,0.0322,0.0292,0.0227,0.0225,0.0232,0.0229,0.0265,0.0265,0.0265,0.0265,0.0265,0,0.0227,0.0256,0.0293,0.0316,0.0363,0.0373,0.0421,0.0435,0.0472,0.0531,0.0498,0.0553,0.0478,0.0465,0.0384,0.0322,0.0352,0.0234,0.0226,0.0242,0.0241,0.0235,0.0232,0.0265,0.0265,0.0265,0.0265,0,0.0244,0.0267,0.0314,0.0359,0.0376,0.041,0.0464,0.0503,0.0535,0.0615,0.0631,0.0657,0.065,0.0556,0.0494,0.0391,0.0318,0.0283,0.0298,0.029,0.0198,0.0196,0.0202,0.0201,0.02,0.02,0.0199,0,0.0257,0.0287,0.0346,0.0376,0.0397,0.0449,0.049,0.053,0.0588,0.0696,0.0752,0.0772,0.0807,0.0689,0.0528,0.0374,0.0346,0.0267,0.0218,0.0203,0.0194,0.0193,0.0193,0.0239,0.0239,0.0239,0.0239,0,0.0285,0.0304,0.0342,0.0407,0.0453,0.0515,0.0586,0.0657,0.0737,0.0835,0.0978,0.1015,0.0898,0.0774,0.0539,0.0428,0.0286,0.0257,0.0269,0.0246,0.0236,0.0227,0.0226,0.0238,0.0238,0.0238,0.0238,0.0238,0.0301,0.0329,0.0377,0.044,0.0495,0.0594,0.0682,0.0798,0.0944,0.111,0.1124,0.1173,0.0984,0.0698,0.0508,0.029,0.0295,0.0197,0.0199,0.0201,0.0201,0.0189,0.0182,0.0182,0.0182,0.0182,0.0182,0,0.0322,0.0355,0.041,0.0493,0.0573,0.0594,0.0753,0.0878,0.1108,0.1198,0.1308,0.112,0.096,0.0734,0.0417,0.0218,0.02,0.0149,0.0175,0.0178,0.018,0.018,0.0155,0.0155,0.0154,0.0153,0,0,0.0332,0.038,0.0413,0.0546,0.0616,0.0753,0.0868,0.1075,0.119,0.1323,0.1324,0.1276,0.1008,0.0763,0.0515,0.0341,0.0297,0.0296,0.0341,0.0406,0.041,0.0234,0.024,0,0,0,0,0]}],[{"header":{"parameterUnit":"m.s-1","parameterCategory":2,"la1":30.2991,"la2":30.254,"lo1":-89.0895,"lo2":-89.0444,"dy":0.0017,"dx":0.0017,"nx":28,"ny":28,"refTime":"2025-07-26T03:00:00:Z","depth":"4","parameterNumber":2,"parameterNumberName":"U-component_of_CURRENTS"},"data":[0,0,0,0,0,0,0,0,0,0,0,0,0,0,0,0,0,0,0,0,0,0,0,0,0,0,0,0,0,0,0,0,0,0,0,0,0,0,0,0,0,0,0,0,0,0,0,0,0,0,0,0,0,0,0,0,0,0,0.0983,0.0983,0,0.1037,0.1038,0.1039,0.1099,0.11,0.1101,0.1101,0.1168,0.1169,0.1171,0,0,0,0,0,0,0,0,0,0,0,0,0,0.0954,0.0954,0.0983,0.0983,0.0984,0.1037,0.1038,0.1039,0.1099,0.11,0.1101,0.1101,0.1168,0.1169,0.1171,0,0,0,0,0,0,0,0,0,0,0,0,0,0.0985,0.0954,0.0983,0.1018,0.1022,0.1037,0.1038,0.1039,0.1099,0.11,0.1101,0.1102,0.1167,0.1169,0.1171,0.1163,0,0,0.1176,0.1177,0,0,0,0,0,0,0,0,0.0984,0.0987,0.1013,0.1016,0.102,0.106,0.1052,0.108,0.1099,0.1073,0.1101,0.1102,0.1131,0.1135,0.1147,0.1166,0.1169,0.1176,0.1178,0.1178,0.1179,0,0,0,0,0,0,0,0.0981,0.0985,0.1007,0.1013,0.1017,0.1038,0.1044,0.1058,0.1098,0.1075,0.1079,0.108,0.1133,0.1146,0.1149,0.117,0.1176,0.1178,0.1179,0.118,0.1268,0.1269,0,0,0,0,0,0,0.0967,0.0983,0.1005,0.1009,0.1,0.1038,0.1044,0.1048,0.1098,0.1105,0.1079,0.1083,0.1142,0.1147,0.1152,0.1215,0.1178,0.118,0.1181,0.1267,0.1268,0.127,0,0,0,0,0,0,0.0966,0.0968,0.1003,0.0995,0.1,0.1037,0.1041,0.1049,0.1086,0.11,0.1109,0.1111,0.1143,0.1149,0.1193,0.1215,0.1181,0.1182,0.1265,0.1267,0.1269,0.1296,0,0,0,0,0,0,0.0965,0.0968,0.0982,0.0993,0.1,0.1028,0.104,0.1049,0.1082,0.1088,0.113,0.1136,0.1144,0.119,0.1194,0.1217,0.1184,0.1264,0.1266,0.1268,0.1293,0.1298,0.1302,0,0,0,0,0,0.0964,0.0973,0.0983,0.0986,0.1013,0.1028,0.1034,0.1065,0.1083,0.1103,0.1137,0.1136,0.1208,0.1193,0.1197,0.1221,0.1262,0.1265,0.1268,0.1291,0.1297,0.1302,0,0,0,0,0,0,0.0972,0.098,0.0991,0.1005,0.1022,0.1038,0.1062,0.1077,0.1119,0.1133,0.1151,0.1159,0.1206,0.121,0.1192,0.1254,0.1235,0.1239,0.1251,0.1257,0.1262,0.1268,0.1185,0,0,0,0,0,0.0977,0.0988,0.0998,0.1013,0.1024,0.1047,0.1063,0.108,0.1107,0.1128,0.1157,0.1188,0.1217,0.1235,0.1259,0.1289,0.1302,0.1309,0.1314,0.1318,0.1327,0.1375,0.1385,0.1279,0.1279,0.1279,0,0,0.0981,0.099,0.0996,0.1016,0.1036,0.1053,0.1062,0.1089,0.1112,0.1127,0.1183,0.1207,0.123,0.127,0.1291,0.1279,0.1353,0.1321,0.1324,0.1332,0.1379,0.1389,0.1399,0.1281,0.128,0.128,0,0,0.0987,0.1008,0.1018,0.1035,0.1061,0.1074,0.1085,0.1114,0.1143,0.1185,0.1207,0.1247,0.1289,0.1312,0.1326,0.137,0.1378,0.138,0.1408,0.1454,0.1463,0.1471,0.1489,0.1499,0.138,0.138,0.138,0,0.0996,0.1007,0.1025,0.1041,0.1058,0.1085,0.1102,0.1131,0.1173,0.1199,0.121,0.1289,0.1308,0.1355,0.1378,0.138,0.1403,0.1381,0.146,0.1468,0.1476,0.1493,0.1503,0.1382,0.1382,0.1381,0.1381,0,0.1001,0.1022,0.1034,0.1062,0.1084,0.1105,0.1135,0.1172,0.1209,0.1235,0.13,0.1332,0.138,0.1391,0.1402,0.1467,0.1463,0.1461,0.1443,0.1488,0.1503,0.1513,0.1384,0.1383,0.1383,0.1383,0,0,0.0991,0.1028,0.1037,0.1052,0.1098,0.1111,0.116,0.1203,0.1241,0.1292,0.1344,0.14,0.1427,0.1446,0.1464,0.1506,0.1577,0.1516,0.1517,0.1529,0.1673,0.1549,0.1548,0.1597,0.16,0.1601,0.1655,0,0.0995,0.1019,0.1042,0.1077,0.1091,0.1135,0.1175,0.1223,0.1273,0.1332,0.1378,0.1438,0.1444,0.1479,0.1522,0.1569,0.1608,0.1562,0.1631,0.1633,0.1514,0.1557,0.1609,0.1663,0.1665,0.1667,0.1668,0,0.0992,0.1009,0.1037,0.108,0.1094,0.1126,0.1196,0.1234,0.1318,0.1364,0.143,0.1472,0.1547,0.1546,0.1644,0.162,0.1657,0.1683,0.1686,0.157,0.1528,0.1613,0.1687,0.1685,0.1684,0.1683,0.1681,0,0.0962,0.1007,0.1029,0.1044,0.1098,0.1133,0.1172,0.125,0.1286,0.1396,0.1439,0.1527,0.1581,0.1646,0.1708,0.1693,0.1808,0.1784,0.17,0.1691,0.1774,0.1764,0.1859,0.1859,0.1859,0.1859,0.1858,0,0.0943,0.0962,0.1022,0.103,0.1065,0.112,0.117,0.1229,0.1312,0.1348,0.1456,0.1501,0.1618,0.1688,0.1732,0.1744,0.1828,0.1712,0.1703,0.1781,0.1772,0.178,0.177,0.1861,0.186,0.186,0.1859,0,0.0896,0.0934,0.0956,0.1022,0.1047,0.1073,0.1149,0.1167,0.128,0.1332,0.1373,0.1507,0.1602,0.1691,0.1801,0.1756,0.1793,0.1781,0.1858,0.1851,0.1634,0.1625,0.167,0.1667,0.1663,0.1661,0.1659,0,0.0866,0.0877,0.094,0.0937,0.0967,0.1016,0.1029,0.1139,0.1154,0.1312,0.1314,0.1463,0.1538,0.1597,0.1704,0.1768,0.1758,0.1744,0.1684,0.1632,0.1619,0.1615,0.161,0.1653,0.1653,0.1652,0.1651,0,0.081,0.0846,0.0859,0.0852,0.0865,0.0872,0.091,0.0931,0.1044,0.1159,0.1239,0.132,0.1423,0.1522,0.1595,0.1636,0.173,0.171,0.1716,0.166,0.1612,0.1601,0.16,0.164,0.1641,0.1642,0.1643,0,0.0772,0.0756,0.0768,0.0751,0.0743,0.0711,0.0765,0.0796,0.0851,0.1037,0.1065,0.1248,0.1393,0.1455,0.1521,0.1555,0.1524,0.1454,0.1473,0.1486,0.1405,0.1315,0.1251,0,0,0,0,0,0.0731,0.0685,0.0655,0.0612,0.0588,0.0594,0.0654,0.0715,0.0853,0.0864,0.0967,0.1067,0.1191,0.1297,0.1299,0.143,0.1519,0.1421,0.1443,0.1578,0.1591,0.1514,0,0,0,0,0,0,0.0691,0.0664,0.0624,0.049,0.0436,0.0403,0.0449,0.0551,0.0579,0.0748,0.0838,0.096,0.1116,0.1176,0.1265,0.1293,0.1274,0.1536,0.1532,0.1571,0.1583,0.1593,0.1518,0,0,0,0,0]},{"header":{"parameterUnit":"m.s-1","parameterCategory":2,"la1":30.2991,"la2":30.254,"lo1":-89.0895,"lo2":-89.0444,"dy":0.0017,"dx":0.0017,"nx":28,"ny":28,"refTime":"2025-07-26T03:00:00:Z","depth":"4","parameterNumber":3,"parameterNumberName":"V-component_of_CURRENTS"},"data":[0,0,0,0,0,0,0,0,0,0,0,0,0,0,0,0,0,0,0,0,0,0,0,0,0,0,0,0,0,0,0,0,0,0,0,0,0,0,0,0,0,0,0,0,0,0,0,0,0,0,0,0,0,0,0,0,0,0,0.0123,0.0122,0,0.0115,0.0115,0.0115,0.0114,0.0114,0.0114,0.0114,0.0091,0.0091,0.009,0,0,0,0,0,0,0,0,0,0,0,0,0,0.0115,0.0115,0.0123,0.0122,0.0122,0.0115,0.0115,0.0115,0.0114,0.0114,0.0114,0.0114,0.0092,0.0091,0.009,0,0,0,0,0,0,0,0,0,0,0,0,0,0.0114,0.0115,0.0123,0.012,0.012,0.0115,0.0115,0.0115,0.0114,0.0114,0.0114,0.0114,0.0092,0.0091,0.009,0.0084,0,0,0.0087,0.0087,0,0,0,0,0,0,0,0,0.0114,0.0115,0.0121,0.012,0.012,0.0115,0.0104,0.0104,0.0114,0.0116,0.0114,0.0114,0.0098,0.0096,0.0096,0.0083,0.0082,0.0087,0.0087,0.0086,0.0086,0,0,0,0,0,0,0,0.0114,0.0115,0.012,0.0121,0.012,0.0113,0.0113,0.0104,0.0107,0.0116,0.0116,0.0114,0.0097,0.0097,0.0095,0.0082,0.0087,0.0086,0.0086,0.0086,0.0073,0.0073,0,0,0,0,0,0,0.0115,0.0115,0.012,0.012,0.0117,0.0113,0.0113,0.0117,0.0107,0.0106,0.0114,0.0114,0.0098,0.0096,0.0094,0.0098,0.0086,0.0085,0.0085,0.0073,0.0073,0.0074,0,0,0,0,0,0,0.0115,0.0116,0.0121,0.0116,0.0116,0.0113,0.0117,0.0117,0.0116,0.0106,0.0105,0.0114,0.0098,0.0096,0.0091,0.0097,0.0085,0.0084,0.0073,0.0073,0.0073,0.0098,0,0,0,0,0,0,0.0115,0.0116,0.0118,0.0117,0.0117,0.0118,0.0117,0.0117,0.0115,0.0115,0.0106,0.0104,0.0098,0.0092,0.009,0.0095,0.0084,0.0073,0.0073,0.0073,0.0097,0.0099,0.0101,0,0,0,0,0,0.0115,0.0119,0.0119,0.0119,0.012,0.0118,0.0117,0.0115,0.0115,0.0115,0.0112,0.0104,0.0093,0.0092,0.0089,0.0094,0.0072,0.0073,0.0073,0.0096,0.0099,0.0101,0,0,0,0,0,0,0.0113,0.0119,0.0119,0.0123,0.012,0.0118,0.0117,0.0115,0.0113,0.0114,0.0105,0.0103,0.0102,0.0093,0.0092,0.0092,0.0082,0.0082,0.01,0.0102,0.0104,0.0106,0.0083,0,0,0,0,0,0.0114,0.012,0.012,0.0122,0.0122,0.0119,0.0118,0.0118,0.0115,0.0114,0.0108,0.0103,0.0102,0.0098,0.0093,0.0091,0.0076,0.0092,0.0094,0.0096,0.0095,0.0081,0.0082,0.0075,0.0075,0.0075,0,0,0.0114,0.0117,0.012,0.0122,0.0121,0.0126,0.0119,0.0119,0.0125,0.0111,0.0116,0.0109,0.0102,0.0104,0.0102,0.0097,0.009,0.0097,0.0099,0.0096,0.0082,0.0082,0.0083,0.0075,0.0075,0.0075,0,0,0.0118,0.0119,0.0126,0.0128,0.0128,0.0128,0.0129,0.0127,0.0128,0.0128,0.0125,0.0122,0.0114,0.0114,0.0113,0.0121,0.0102,0.0119,0.013,0.0116,0.0117,0.0117,0.0098,0.0096,0.012,0.012,0.012,0,0.0116,0.0129,0.0126,0.0134,0.0138,0.0131,0.0141,0.014,0.0138,0.0141,0.0132,0.0128,0.0121,0.0127,0.0131,0.0126,0.0112,0.0122,0.0119,0.0119,0.0119,0.0099,0.0097,0.0121,0.0121,0.0121,0.0121,0,0.0128,0.0138,0.0141,0.0153,0.0155,0.0162,0.0162,0.0165,0.0163,0.0162,0.0163,0.0151,0.0149,0.0146,0.014,0.014,0.0128,0.0124,0.0113,0.0121,0.01,0.0097,0.0123,0.0123,0.0122,0.0122,0,0,0.0127,0.0148,0.015,0.0164,0.017,0.0176,0.0184,0.0193,0.0207,0.0191,0.0204,0.0191,0.0181,0.0178,0.0169,0.0154,0.0139,0.0138,0.0137,0.012,0.0103,0.0094,0.009,0.0133,0.0133,0.0133,0.0088,0,0.0139,0.0166,0.017,0.0195,0.021,0.021,0.0224,0.0229,0.0229,0.0237,0.0217,0.0224,0.0195,0.0199,0.0177,0.0155,0.0133,0.0151,0.0097,0.0095,0.0087,0.0087,0.0132,0.0086,0.0085,0.0085,0.0084,0,0.0151,0.0171,0.02,0.0231,0.0237,0.025,0.0276,0.029,0.0294,0.0293,0.0283,0.0267,0.0247,0.0223,0.0168,0.018,0.014,0.0114,0.0111,0.0092,0.0082,0.0077,0.0079,0.008,0.008,0.008,0.0081,0,0.0161,0.0192,0.0221,0.023,0.0261,0.0275,0.0294,0.0307,0.0336,0.0333,0.0345,0.0307,0.0303,0.0243,0.0177,0.0174,0.0112,0.0104,0.0054,0.0053,0.0063,0.0063,0.0059,0.0059,0.0059,0.0059,0.0059,0,0.0175,0.0198,0.0232,0.0248,0.0292,0.0302,0.0352,0.0358,0.0387,0.0426,0.0379,0.039,0.0308,0.0261,0.019,0.0112,0.0119,0.0053,0.0041,0.0074,0.0076,0.0061,0.0062,0.0057,0.0058,0.0058,0.0058,0,0.018,0.0201,0.024,0.0281,0.0299,0.0333,0.0403,0.0447,0.0454,0.05,0.0502,0.046,0.0394,0.0302,0.021,0.0141,0.0063,0.0032,0.0071,0.0063,0.0007,0.001,-0.0027,-0.0028,-0.0028,-0.0029,-0.0029,0,0.0187,0.0207,0.0267,0.0304,0.0326,0.0388,0.0442,0.0479,0.0528,0.0544,0.0568,0.0513,0.0469,0.0329,0.0224,0.0079,0.0056,0.0006,0.0002,0.0006,-0.0002,0.0002,0.0005,-0.003,-0.003,-0.003,-0.003,0,0.0201,0.0221,0.0255,0.0337,0.0397,0.0479,0.055,0.0588,0.0634,0.0636,0.0624,0.0541,0.0464,0.0339,0.0223,0.012,0.0034,-0.0,0.0,-0.0004,0.0002,-0.0004,-0.0,-0.0032,-0.0032,-0.0032,-0.0032,0,0.0211,0.0239,0.0293,0.0368,0.0451,0.0544,0.0582,0.0638,0.0683,0.0685,0.068,0.058,0.0523,0.0361,0.0258,0.015,0.0119,0.0076,0.0072,0.0072,0.0109,0.0132,0.0127,0,0,0,0,0,0.0221,0.0261,0.0329,0.0413,0.0501,0.0556,0.0648,0.0683,0.0714,0.0713,0.0698,0.0621,0.0458,0.0389,0.0281,0.0245,0.01,0.0112,0.0048,-0.0043,-0.0041,-0.0016,0,0,0,0,0,0,0.0231,0.0284,0.0326,0.0445,0.0509,0.0618,0.0679,0.0704,0.0705,0.0703,0.0623,0.0575,0.0424,0.0513,0.0269,0.0237,0.0178,0.0037,0.0034,-0.0044,-0.0042,-0.0041,-0.0014,0,0,0,0,0]}]]